This is the latest recevied weather packets stored in our database for station/object DL7AND-1. If no packets are shown the sender has not sent any weather packets the latest 10 day(s).
| Time | Temp. | Humidity | Pressure | Rain* | Wind** | Luminosity | Snow |
|---|---|---|---|---|---|---|---|
| 1777890659 | 23.89° C | - | 1002.9 hPa | 0 mm | - | - | - |
| 1777888259 | 23.89° C | - | 1003 hPa | 0 mm | - | - | - |
| 1777886483 | 23.33° C | - | 1003.1 hPa | 0 mm | - | - | - |
| 1777878659 | 22.78° C | - | 1002.7 hPa | 0 mm | - | - | - |
| 1777875683 | 22.22° C | - | 1002.4 hPa | 0 mm | - | - | - |
| 1777871479 | 19.44° C | - | 1002 hPa | 0 mm | - | - | - |
| 1777866660 | 20.56° C | - | 1001.3 hPa | 0 mm | - | - | - |
| 1777866083 | 20.56° C | - | 1001.3 hPa | 0 mm | - | - | - |
| 1777860659 | 21.11° C | - | 1001.7 hPa | 0 mm | - | - | - |
| 1777857059 | 21.67° C | - | 1001 hPa | 0 mm | - | - | - |
| 1777852883 | 22.22° C | - | 1001.1 hPa | 0 mm | - | - | - |
| 1777851684 | 22.22° C | - | 1000.9 hPa | 0 mm | - | - | - |
| 1777849859 | 22.78° C | - | 1001 hPa | 0 mm | - | - | - |
| 1777848660 | 22.78° C | - | 1001.1 hPa | 0 mm | - | - | - |
| 1777848083 | 22.78° C | - | 1001.1 hPa | 0 mm | - | - | - |
| 1777837569 | 24.44° C | - | 1000.4 hPa | 0 mm | - | - | - |
| 1777834613 | 25.56° C | - | 1000 hPa | 0 mm | - | - | - |
| 1777830369 | 26.67° C | - | 999.7 hPa | 0 mm | - | - | - |
| 1777829168 | 26.67° C | - | 999.8 hPa | 0 mm | - | - | - |
| 1777827413 | 27.22° C | - | 999.7 hPa | 0 mm | - | - | - |
| 1777814213 | 28.33° C | - | 1001.2 hPa | 0 mm | - | - | - |
| 1777812993 | 28.33° C | - | 1001.5 hPa | 0 mm | - | - | - |
| 1777811793 | 28.33° C | - | 1001.7 hPa | 0 mm | - | - | - |
| 1777808769 | 27.78° C | - | 1002 hPa | 0 mm | - | - | - |
| 1777803969 | 27.78° C | - | 1002.6 hPa | 0 mm | - | - | - |
* Rain latest hour (hover to see other rain measurements)
** Current wind speed in m/s (hover to see current wind gust speed)